EW9824 Weather Reports


Display with metric or nautical units.
time (UTC)temp
F
wind
direction
speed
MPH
gust
MPH
rain 1hr
in
rain 24hr
in
rain mn
in
humidity
%
barometer
mb
20210801141542 64 201 1.0 0.0 0.00 0.00 0.00 90 1021.0
20210801140031 64 219 1.0 0.0 0.00 0.00 0.00 91 1021.0
20210801134547 63 155 1.0 0.0 0.00 0.00 0.00 91 1021.0
20210801133041 63 141 1.0 0.0 0.00 0.00 0.00 90 1021.0
20210801131529 64 202 0.0 0.0 0.00 0.00 0.00 89 1020.7
20210801130045 64 194 1.0 0.0 0.00 0.00 0.00 88 1020.7
20210801124535 64 167 2.0 0.0 0.00 0.00 0.00 89 1020.7
20210801123038 64 183 1.0 0.0 0.00 0.00 0.00 89 1020.7
20210801121537 64 157 0.0 0.0 0.00 0.00 0.00 88 1020.7
20210801120030 65 159 0.0 0.0 0.00 0.00 0.00 88 1020.7
20210801114533 65 202 1.0 0.0 0.00 0.00 0.00 87 1020.7
20210801113032 65 154 2.0 0.0 0.00 0.00 0.00 87 1020.7
20210801111534 66 180 0.0 0.0 0.00 0.00 0.00 86 1020.7
20210801110032 66 180 1.0 0.0 0.00 0.00 0.00 86 1020.7
20210801104534 66 204 1.0 0.0 0.00 0.00 0.00 84 1020.7
20210801103037 66 29 0.0 0.0 0.00 0.00 0.00 83 1020.7
20210801101540 67 37 1.0 0.0 0.00 0.00 0.00 81 1020.7
20210801100035 68 156 1.0 0.0 0.00 0.00 0.00 79 1020.7
20210801094539 68 152 2.0 0.0 0.00 0.00 0.00 79 1020.7
20210801093035 68 135 2.0 0.0 0.00 0.00 0.00 79 1020.7
20210801091531 68 156 2.0 0.0 0.00 0.00 0.00 78 1020.3
20210801090039 68 147 2.0 0.0 0.00 0.00 0.00 77 1020.3
20210801084537 69 260 1.0 0.0 0.00 0.00 0.00 75 1020.3
20210801083042 69 335 2.0 0.0 0.00 0.00 0.00 75 1020.3
20210801081532 69 324 3.0 0.0 0.00 0.00 0.00 80 1020.0
20210801080031 67 339 4.0 0.0 0.00 0.00 0.00 85 1020.0
20210801074531 67 135 1.0 0.0 0.00 0.00 0.00 85 1019.6
20210801073029 67 160 0.0 0.0 0.00 0.00 0.00 84 1019.6
20210801071538 68 190 2.0 0.0 0.00 0.00 0.00 83 1020.0
20210801070037 67 158 2.0 0.0 0.00 0.00 0.00 84 1020.0
20210801064540 68 181 1.0 0.0 0.00 0.00 0.00 83 1020.3
20210801063037 68 167 1.0 0.0 0.00 0.00 0.00 82 1020.3
20210801061554 69 160 1.0 0.0 0.00 0.00 0.00 80 1020.3
20210801060040 69 138 2.0 0.0 0.00 0.00 0.00 80 1020.7
20210801054537 69 126 2.0 0.0 0.00 0.00 0.00 80 1020.7
20210801053031 69 276 1.0 0.0 0.00 0.00 0.00 82 1020.3
20210801051535 68 41 1.0 0.0 0.00 0.00 0.00 86 1020.3
20210801050034 68 235 2.0 0.0 0.00 0.00 0.00 86 1020.3
20210801044545 68 208 0.0 0.0 0.00 0.00 0.00 86 1020.0
20210801043044 69 202 0.0 0.0 0.00 0.00 0.00 84 1020.0
20210801041533 70 202 1.0 0.0 0.00 0.00 0.00 82 1020.0
20210801040103 70 169 0.0 0.0 0.00 0.00 0.00 80 1020.0
20210801034539 71 159 2.0 0.0 0.00 0.00 0.00 78 1020.0
20210801033032 72 173 1.0 0.0 0.00 0.00 0.00 76 1020.0
20210801031538 73 179 2.0 0.0 0.00 0.00 0.00 74 1020.0
20210801030044 73 69 1.0 0.0 0.00 0.00 0.00 72 1019.6
20210801024533 74 46 1.0 0.0 0.00 0.00 0.00 71 1019.6
20210801023058 74 11 2.0 0.0 0.00 0.00 0.00 72 1019.3
20210801021616 74 308 2.0 0.0 0.00 0.00 0.00 78 1018.9
20210801020035 75 1 1.0 0.0 0.00 0.00 0.00 80 1018.6
20210801014536 76 210 1.0 0.0 0.00 0.00 0.00 77 1018.6
20210801013030 76 135 2.0 0.0 0.00 0.00 0.00 78 1018.6
20210801011540 77 358 0.0 0.0 0.00 0.00 0.00 78 1018.6
20210801010039 77 246 1.0 0.0 0.00 0.00 0.00 77 1018.9
20210801004603 77 78 1.0 0.0 0.00 0.00 0.00 75 1018.9
20210801003041 78 218 1.0 0.0 0.00 0.00 0.00 74 1018.6
20210801001553 78 194 1.0 0.0 0.00 0.00 0.00 70 1018.6
20210801000035 77 151 2.0 0.0 0.00 0.00 0.00 71 1018.9
20210731234539 78 154 3.0 0.0 0.00 0.00 0.00 76 1019.3
20210731233038 77 211 2.0 0.0 0.00 0.00 0.00 81 1019.3
20210731231533 76 15 1.0 0.0 0.00 0.00 0.00 81 1019.3
20210731230032 76 350 0.0 0.0 0.00 0.00 0.00 81 1019.3
20210731224533 76 6 1.0 0.0 0.00 0.00 0.00 80 1019.3
20210731223031 77 205 2.0 0.0 0.00 0.00 0.00 71 1019.6
20210731221533 76 151 4.0 0.0 0.00 0.00 0.00 76 1019.6
20210731220029 76 160 2.0 0.0 0.00 0.00 0.00 80 1020.0
20210731214535 77 61 0.0 0.0 0.00 0.00 0.00 78 1019.6
20210731213034 77 346 1.0 0.0 0.00 0.00 0.00 79 1019.6
20210731211534 77 349 0.0 0.0 0.00 0.00 0.00 78 1019.6
20210731210040 77 56 0.0 0.0 0.00 0.00 0.00 79 1019.6
20210731204548 76 135 0.0 0.0 0.00 0.00 0.00 80 1019.6
20210731203031 75 139 0.0 0.0 0.00 0.00 0.00 78 1019.6
20210731201537 75 169 1.0 0.0 0.00 0.00 0.00 75 1019.6
20210731200033 76 173 3.0 0.0 0.00 0.00 0.00 72 1020.0
20210731194537 76 159 2.0 0.0 0.00 0.00 0.00 73 1019.6
20210731193037 76 247 2.0 0.0 0.00 0.00 0.00 71 1019.6
20210731191550 76 356 2.0 0.0 0.00 0.00 0.00 69 1019.6
20210731190030 76 88 1.0 0.0 0.00 0.00 0.00 72 1019.6
20210731184534 73 184 0.0 0.0 0.00 0.00 0.00 75 1019.6
20210731183051 72 216 2.0 0.0 0.00 0.00 0.00 75 1019.6
20210731181541 72 198 3.0 0.0 0.00 0.00 0.00 73 1019.3
20210731180046 73 301 0.0 0.0 0.00 0.00 0.00 71 1019.3
20210731174532 72 354 2.0 0.0 0.00 0.00 0.00 73 1019.3
20210731173032 71 318 1.0 0.0 0.00 0.00 0.00 76 1018.9
20210731171534 70 79 2.0 0.0 0.00 0.00 0.00 79 1018.9
20210731170034 69 325 2.0 0.0 0.00 0.00 0.00 81 1018.9
20210731164535 69 195 1.0 0.0 0.00 0.00 0.00 79 1018.9
20210731163035 69 184 2.0 0.0 0.00 0.00 0.00 76 1019.3
20210731161535 68 155 2.0 0.0 0.00 0.00 0.00 78 1019.3
20210731160039 68 177 3.0 0.0 0.00 0.00 0.00 76 1019.3
20210731154540 67 184 4.0 0.0 0.00 0.00 0.00 79 1018.9
20210731153038 67 172 2.0 0.0 0.00 0.00 0.00 80 1018.6
20210731151536 67 192 1.0 0.0 0.00 0.00 0.00 78 1018.6
20210731150034 67 181 2.0 0.0 0.00 0.00 0.00 76 1018.6
20210731144539 68 169 1.0 0.0 0.00 0.00 0.00 73 1018.9
20210731143029 69 171 1.0 0.0 0.00 0.00 0.00 70 1018.6